User: anonymous   Login
Location: Antichan
(42.9728°N, 0.6667°E)
Time: 02:14:37
(UTC+00:00)
Language:

Cosmos 2333 - Orbit

View from above orbital plane
View from above orbital plane
View from above satellite
View from above satellite

Ground track
Ground track

The orbit data is extracted from the following two-line orbital elements,

1 24297U 96051A   20302.57605820 +.00000003 +00000-0 +27104-4 0  9996
2 24297 070.9078 346.3478 0022636 165.9679 194.2076 14.13354090245587
Epoch (UTC): 28 October 2020 13:49:31
Eccentricity: 0.0022636
inclination: 70.9078°
perigee height: 831 km
apogee height: 864 km
right ascension of ascending node: 346.3478°
argument of perigee: 165.9679°
revolutions per day: 14.13354090
mean anomaly at epoch: 194.2076°
orbit number at epoch: 24558

The dashed part of the orbit path shows where the satellite is in the earth's shadow,  

DLR